| time (UTC) | temp C | wind direction | speed KPH | gust KPH | rain 1hr cm | rain 24hr cm | rain mn cm | humidity % | barometer mb |
| 20260505034454 | 15 | 278 | 6.4 | 9.7 | 0.00 | 0.00 | 0.00 | 63 | 1010.1 |
| 20260505032953 | 15 | 242 | 6.4 | 11.3 | 0.00 | 0.00 | 0.00 | 61 | 1010.2 |
| 20260505031452 | 16 | 266 | 4.8 | 11.3 | 0.00 | 0.00 | 0.00 | 59 | 1010.2 |
| 20260505025955 | 16 | 259 | 4.8 | 16.1 | 0.00 | 0.00 | 0.00 | 58 | 1010.3 |
| 20260505024452 | 16 | 229 | 1.6 | 6.4 | 0.00 | 0.00 | 0.00 | 58 | 1010.2 |
| 20260505022952 | 16 | 215 | 1.6 | 4.8 | 0.00 | 0.00 | 0.00 | 56 | 1010.2 |
| 20260505021452 | 17 | 283 | 4.8 | 9.7 | 0.00 | 0.00 | 0.00 | 55 | 1010.4 |
| 20260505015955 | 17 | 261 | 3.2 | 8.0 | 0.00 | 0.00 | 0.00 | 55 | 1010.5 |
| 20260505014453 | 17 | 272 | 4.8 | 9.7 | 0.00 | 0.00 | 0.00 | 54 | 1010.4 |
| 20260505011451 | 17 | 268 | 4.8 | 8.0 | 0.00 | 0.00 | 0.00 | 52 | 1010.1 |
| 20260505004451 | 18 | 245 | 6.4 | 11.3 | 0.00 | 0.00 | 0.00 | 50 | 1009.9 |
| 20260505002953 | 18 | 269 | 3.2 | 11.3 | 0.00 | 0.00 | 0.00 | 50 | 1009.8 |
| 20260505001451 | 18 | 284 | 3.2 | 8.0 | 0.00 | 0.00 | 0.00 | 49 | 1009.6 |
| 20260504235955 | 18 | 309 | 4.8 | 11.3 | 0.00 | 0.00 | 0.00 | 48 | 1009.6 |
| 20260504234452 | 19 | 283 | 6.4 | 12.9 | 0.00 | 0.00 | 0.00 | 46 | 1009.5 |
| 20260504232952 | 20 | 266 | 6.4 | 14.5 | 0.00 | 0.00 | 0.00 | 45 | 1009.6 |
| 20260504231452 | 20 | 290 | 6.4 | 14.5 | 0.00 | 0.00 | 0.00 | 45 | 1009.7 |
| 20260504225955 | 20 | 304 | 8.0 | 22.5 | 0.00 | 0.00 | 0.00 | 44 | 1009.6 |
| 20260504224452 | 20 | 261 | 9.7 | 20.9 | 0.00 | 0.00 | 0.00 | 44 | 1009.6 |
| 20260504222952 | 20 | 259 | 9.7 | 19.3 | 0.00 | 0.00 | 0.00 | 44 | 1009.7 |
| 20260504221454 | 20 | 302 | 9.7 | 22.5 | 0.00 | 0.00 | 0.00 | 43 | 1009.6 |
| 20260504215955 | 20 | 309 | 11.3 | 20.9 | 0.00 | 0.00 | 0.00 | 43 | 1009.6 |
| 20260504211451 | 21 | 249 | 11.3 | 22.5 | 0.00 | 0.00 | 0.00 | 41 | 1009.7 |
| 20260504205954 | 21 | 307 | 12.9 | 30.6 | 0.00 | 0.00 | 0.00 | 41 | 1009.8 |
| 20260504204451 | 21 | 271 | 12.9 | 27.4 | 0.00 | 0.00 | 0.00 | 41 | 1009.8 |
| 20260504202952 | 21 | 310 | 11.3 | 27.4 | 0.00 | 0.00 | 0.00 | 40 | 1009.8 |
| 20260504201451 | 20 | 224 | 11.3 | 20.9 | 0.00 | 0.00 | 0.00 | 41 | 1010.1 |
| 20260504195955 | 20 | 314 | 11.3 | 25.7 | 0.00 | 0.00 | 0.00 | 42 | 1010.3 |
| 20260504192952 | 20 | 293 | 12.9 | 27.4 | 0.00 | 0.00 | 0.00 | 44 | 1010.7 |
| 20260504191451 | 20 | 287 | 12.9 | 24.1 | 0.00 | 0.00 | 0.00 | 43 | 1011.0 |
| 20260504185954 | 20 | 259 | 11.3 | 24.1 | 0.00 | 0.00 | 0.00 | 45 | 1011.2 |
| 20260504184452 | 20 | 278 | 9.7 | 17.7 | 0.00 | 0.00 | 0.00 | 44 | 1011.3 |
| 20260504182951 | 19 | 338 | 9.7 | 25.7 | 0.00 | 0.00 | 0.00 | 45 | 1011.3 |
| 20260504181453 | 20 | 284 | 8.0 | 20.9 | 0.00 | 0.00 | 0.00 | 45 | 1011.5 |
| 20260504175953 | 20 | 289 | 6.4 | 16.1 | 0.00 | 0.00 | 0.00 | 47 | 1011.8 |
| 20260504174451 | 19 | 278 | 4.8 | 16.1 | 0.00 | 0.00 | 0.00 | 46 | 1011.9 |
| 20260504172952 | 18 | 231 | 8.0 | 19.3 | 0.00 | 0.00 | 0.00 | 45 | 1012.2 |
| 20260504171453 | 18 | 307 | 9.7 | 22.5 | 0.00 | 0.00 | 0.00 | 45 | 1012.2 |
| 20260504081451 | 7 | 316 | 3.2 | 8.0 | 0.00 | 0.00 | 0.00 | 64 | 1014.8 |
| 20260504045956 | 9 | 316 | 3.2 | 8.0 | 0.00 | 0.00 | 0.00 | 54 | 1014.7 |
| 20260504042953 | 9 | 300 | 3.2 | 8.0 | 0.00 | 0.00 | 0.00 | 54 | 1014.8 |
| 20260504041453 | 9 | 304 | 3.2 | 8.0 | 0.00 | 0.00 | 0.00 | 53 | 1014.5 |
| 20260504035956 | 9 | 347 | 4.8 | 8.0 | 0.00 | 0.00 | 0.00 | 54 | 1014.5 |